EA3CTN-13 Weather Reports


Display with metric or nautical units.
time (UTC)temp
F
wind
direction
speed
MPH
gust
MPH
rain 1hr
in
rain 24hr
in
rain mn
in
humidity
%
barometer
mb
20260901131514 86 0.0 0.0 0.00 0.00 0.00 45 1019.9
20260901130714 86 0.0 0.0 0.00 0.00 0.00 44 1020.1
20260901125914 87 0.0 0.0 0.00 0.00 0.00 44 1020.3
20260901125114 87 0.0 0.0 0.00 0.00 0.00 43 1020.2
20260901124314 87 0.0 0.0 0.00 0.00 0.00 44 1020.2
20260901123514 86 0.0 0.0 0.00 0.00 0.00 44 1020.3
20260901122714 86 0.0 0.0 0.00 0.00 0.00 46 1020.4
20260901121914 86 0.0 0.0 0.00 0.00 0.00 48 1020.5
20260901121114 86 0.0 0.0 0.00 0.00 0.00 48 1020.6
20260901120314 86 0.0 0.0 0.00 0.00 0.00 48 1020.6
20260901115514 86 0.0 0.0 0.00 0.00 0.00 49 1020.6
20260901114714 85 0.0 0.0 0.00 0.00 0.00 49 1020.7
20260901113914 85 0.0 0.0 0.00 0.00 0.00 49 1020.8
20260901113114 86 0.0 0.0 0.00 0.00 0.00 48 1020.8
20260901112314 86 0.0 0.0 0.00 0.00 0.00 48 1020.7
20260901111515 86 0.0 0.0 0.00 0.00 0.00 47 1020.8
20260901110714 87 0.0 0.0 0.00 0.00 0.00 45 1020.8
20260901105914 87 0.0 0.0 0.00 0.00 0.00 46 1020.9
20260901105114 87 0.0 0.0 0.00 0.00 0.00 46 1020.9
20260901104314 86 0.0 0.0 0.00 0.00 0.00 45 1020.9
20260901103514 86 0.0 0.0 0.00 0.00 0.00 45 1021.0
20260901102714 86 0.0 0.0 0.00 0.00 0.00 45 1021.1
20260901101914 86 0.0 0.0 0.00 0.00 0.00 45 1021.0
20260901101114 86 0.0 0.0 0.00 0.00 0.00 44 1021.1
20260901100314 85 0.0 0.0 0.00 0.00 0.00 45 1021.1
20260901095514 85 0.0 0.0 0.00 0.00 0.00 44 1020.9
20260901094714 85 0.0 0.0 0.00 0.00 0.00 44 1020.9
20260901093914 85 0.0 0.0 0.00 0.00 0.00 44 1020.8
20260901093114 85 0.0 0.0 0.00 0.00 0.00 44 1020.7
20260901092314 85 0.0 0.0 0.00 0.00 0.00 45 1020.6
20260901091514 85 0.0 0.0 0.00 0.00 0.00 45 1020.5
20260901090714 85 0.0 0.0 0.00 0.00 0.00 47 1020.5
20260901085914 85 0.0 0.0 0.00 0.00 0.00 48 1020.4
20260901085114 85 0.0 0.0 0.00 0.00 0.00 48 1020.3
20260901084314 84 0.0 0.0 0.00 0.00 0.00 45 1020.2
20260901083514 84 0.0 0.0 0.00 0.00 0.00 47 1020.2
20260901082714 84 0.0 0.0 0.00 0.00 0.00 45 1020.0
20260901081914 84 0.0 0.0 0.00 0.00 0.00 48 1020.0
20260901081114 83 0.0 0.0 0.00 0.00 0.00 48 1020.0
20260901080314 83 0.0 0.0 0.00 0.00 0.00 49 1019.9
20260901075514 83 0.0 0.0 0.00 0.00 0.00 50 1020.0
20260901074714 82 0.0 0.0 0.00 0.00 0.00 51 1019.9
20260901073914 82 0.0 0.0 0.00 0.00 0.00 52 1020.0
20260901073114 82 0.0 0.0 0.00 0.00 0.00 53 1020.0
20260901072314 82 0.0 0.0 0.00 0.00 0.00 52 1020.1
20260901071514 82 0.0 0.0 0.00 0.00 0.00 50 1019.9
20260901070714 82 0.0 0.0 0.00 0.00 0.00 52 1019.8
20260831215514 83 0.0 0.0 0.00 0.00 0.00 56 1020.8
20260831214714 83 0.0 0.0 0.00 0.00 0.00 56 1020.8
20260831213914 83 0.0 0.0 0.00 0.00 0.00 57 1020.6
20260831213113 83 0.0 0.0 0.00 0.00 0.00 56 1020.7
20260831212314 83 0.0 0.0 0.00 0.00 0.00 56 1020.7
20260831211514 83 0.0 0.0 0.00 0.00 0.00 57 1020.6
20260831210714 84 0.0 0.0 0.00 0.00 0.00 57 1020.6
20260831205914 84 0.0 0.0 0.00 0.00 0.00 57 1020.5
20260831205114 84 0.0 0.0 0.00 0.00 0.00 57 1020.5
20260831204314 84 0.0 0.0 0.00 0.00 0.00 56 1020.5
20260831203513 84 0.0 0.0 0.00 0.00 0.00 57 1020.4
20260831202714 84 0.0 0.0 0.00 0.00 0.00 57 1020.4
20260831201913 84 0.0 0.0 0.00 0.00 0.00 57 1020.3
20260831201113 84 0.0 0.0 0.00 0.00 0.00 57 1020.2
20260831200314 84 0.0 0.0 0.00 0.00 0.00 56 1019.9
20260831195514 84 0.0 0.0 0.00 0.00 0.00 56 1020.0
20260831194714 84 0.0 0.0 0.00 0.00 0.00 56 1019.9
20260831193913 84 0.0 0.0 0.00 0.00 0.00 55 1019.8
20260831193114 85 0.0 0.0 0.00 0.00 0.00 54 1019.7
20260831192313 85 0.0 0.0 0.00 0.00 0.00 54 1019.5
20260831191513 85 0.0 0.0 0.00 0.00 0.00 54 1019.4
20260831190713 85 0.0 0.0 0.00 0.00 0.00 54 1019.3
20260831185913 85 0.0 0.0 0.00 0.00 0.00 53 1019.2
20260831185114 85 0.0 0.0 0.00 0.00 0.00 52 1019.1
20260831184313 85 0.0 0.0 0.00 0.00 0.00 52 1019.0
20260831183513 85 0.0 0.0 0.00 0.00 0.00 51 1018.9
20260831182713 86 0.0 0.0 0.00 0.00 0.00 50 1018.8
20260831181913 86 0.0 0.0 0.00 0.00 0.00 49 1018.8
20260831181113 86 0.0 0.0 0.00 0.00 0.00 48 1018.8
20260831180313 86 0.0 0.0 0.00 0.00 0.00 47 1018.6
20260831175513 87 0.0 0.0 0.00 0.00 0.00 46 1018.7
20260831174713 87 0.0 0.0 0.00 0.00 0.00 45 1018.6
20260831173913 87 0.0 0.0 0.00 0.00 0.00 45 1018.7
20260831173113 87 0.0 0.0 0.00 0.00 0.00 44 1018.6
20260831172313 87 0.0 0.0 0.00 0.00 0.00 43 1018.6
20260831171513 88 0.0 0.0 0.00 0.00 0.00 42 1018.6
20260831170713 88 0.0 0.0 0.00 0.00 0.00 41 1018.6
20260831165913 89 0.0 0.0 0.00 0.00 0.00 41 1018.6
20260831165113 90 0.0 0.0 0.00 0.00 0.00 40 1018.5
20260831164313 91 0.0 0.0 0.00 0.00 0.00 38 1018.6
20260831163513 94 0.0 0.0 0.00 0.00 0.00 35 1018.5
20260831162713 96 0.0 0.0 0.00 0.00 0.00 34 1018.6
20260831161913 96 0.0 0.0 0.00 0.00 0.00 34 1018.6
20260831161113 95 0.0 0.0 0.00 0.00 0.00 36 1018.7
20260831160313 92 0.0 0.0 0.00 0.00 0.00 39 1018.8
20260831155513 88 0.0 0.0 0.00 0.00 0.00 43 1018.9
20260831154713 88 0.0 0.0 0.00 0.00 0.00 45 1019.0
20260831153913 88 0.0 0.0 0.00 0.00 0.00 44 1019.0
20260831153114 87 0.0 0.0 0.00 0.00 0.00 46 1019.1
20260831152313 87 0.0 0.0 0.00 0.00 0.00 47 1019.0
20260831151513 87 0.0 0.0 0.00 0.00 0.00 48 1019.0
20260831150713 86 0.0 0.0 0.00 0.00 0.00 50 1019.0
20260831145913 86 0.0 0.0 0.00 0.00 0.00 50 1019.0
20260831145113 86 0.0 0.0 0.00 0.00 0.00 50 1019.0
20260831144313 86 0.0 0.0 0.00 0.00 0.00 49 1018.9
20260831143513 87 0.0 0.0 0.00 0.00 0.00 50 1019.0
20260831142713 87 0.0 0.0 0.00 0.00 0.00 50 1019.0
20260831141913 87 0.0 0.0 0.00 0.00 0.00 50 1019.1
20260831141113 87 0.0 0.0 0.00 0.00 0.00 50 1019.1
20260831140313 87 0.0 0.0 0.00 0.00 0.00 51 1019.2
20260831135513 86 0.0 0.0 0.00 0.00 0.00 50 1019.1
20260831134713 86 0.0 0.0 0.00 0.00 0.00 50 1019.1
20260831133913 86 0.0 0.0 0.00 0.00 0.00 50 1019.2
20260831133113 87 0.0 0.0 0.00 0.00 0.00 51 1019.2
20260831132313 87 0.0 0.0 0.00 0.00 0.00 50 1019.3